Regional Weather Roundup
Issued by NWS New Orleans/Baton Rouge, LA

Home | Current Version | Previous Version | Text Only | Print | Product List | Glossary On
Versions: 1 2 3 4 5 6 7 8 9 10 11 12 13 14 15 16 17 18 19 20 21 22 23 24 25 26 27 28 29 30 31 32 33 34 35 36 37 38 39 40 41 42 43 44 45 46 47 48 49 50
000
ASUS44 KLIX 262113
RWRLIX
NEW ORLEANS REGIONAL WEATHER ROUNDUP
NATIONAL WEATHER SERVICE NEW ORLEANS LA
400 PM CDT FRI MAY 26 2017

NOTE: "FAIR" INDICATES FEW OR NO CLOUDS BELOW 12,000 FEET WITH NO
      SIGNIFICANT WEATHER AND/OR OBSTRUCTIONS TO VISIBILITY.
      SKY/WX - SKY CONDITION AND SIGNIFICANT WEATHER.
      TMP - AIR TEMPERATURE.     DP    - DEWPOINT TEMPERATURE.
      RH  - RELATIVE HUMIDITY.   PRES  - PRESSURE.
      HI  - HEAT INDEX.          WCI   - WIND CHILL INDEX.

*  THESE STATIONS ARE NOT NWS OR FAA STATIONS AND ARE NOT UNDER
   NWS QUALITY CONTROL.

LAZ038-040-048-061>063-065>067-069-262200-
SOUTHEAST LOUISIANA

CITY           SKY/WX    TMP DP  RH WIND       PRES   REMARKS
N.O. INTL ARPT MOSUNNY   84  65  52 S14       29.99F
N.O. LAKEFRONT SUNNY     87  59  38 SE15      29.99F
N.O. DOWNTOWN*   N/A     88  60  38 S12G20      N/A
RESERVE*         N/A     88  62  41 SE14      29.99S
SLIDELL        SUNNY     86  59  39 S15       30.00F
BATON ROUGE    MOSUNNY   85  66  53 S13       29.97F
BOOTHVILLE     SUNNY     80  70  71 S7        30.03F
BELLE CHASSE   MOSUNNY   84  64  50 S10G18    30.00F
BOGALUSA*        N/A     87  58  37 SW8       30.00F
GALLIANO*      CLEAR     83  67  56 S9        30.01S
NEW ROADS*     MOCLDY    84  70  63 S10       29.97S
GONZALES*        N/A     86  67  53 S7        29.97F
HAMMOND*       SUNNY     86  54  32 S10       29.99S
HOUMA*         MOSUNNY   84  72  65 SE14      29.99F
PORT FOURCHON* CLEAR     81  70  69 SE9       30.01S

$$

MSZ070-080>082-262200-
SOUTHERN MISSISSIPPI

CITY           SKY/WX    TMP DP  RH WIND       PRES   REMARKS
MCCOMB         MOSUNNY   86  60  41 SE17      29.97F
GULFPORT       SUNNY     81  66  60 S10G17    30.02F
BILOXI         SUNNY     80  66  62 S12       30.02F
PASCAGOULA     SUNNY     82  61  48 S9        30.03S
STENNIS ARPT*  SUNNY     82  66  57 S12       30.01F

$$

COASTAL OBSERVATIONS
LAKE AND NEARSHORE STATIONS

STATION/POSITION TIME  TEMP    WIND        PRES    WAVE
                       AIR SEA DIR/SP/G            HT/PER
                 (UTC) (F)     (DEG/KT/KT) (MB)    (FT/S)
PASCAGOULA       2048   81     200/  8/ 12 1016.8
WAVELAND YACHT   2048   78 78  160/ 11/ 14 1016.3
GRAND ISLE       2048   79 77  170/  6/  9 1016.3
SOUTHWEST PASS   2048          140/  5/  9   N/A
NEW CANAL        2048   86 80  190/  9/ 16 1015.5
SHELL BEACH      2048   81 80  150/ 11/ 15 1016.3

OFFSHORE STATIONS

STATION/POSITION TIME  TEMP    WIND        PRES    WAVE
                       AIR SEA DIR/SP/G            HT/PER
                 (UTC) (F)     (DEG/KT/KT) (MB)    (FT/S)
64 S DAUPHIN ISL 2040   76 79  160/  8/ 10 1017.3

$$




USA.gov is the U.S. government's official web portal to all federal, state and local government web resources and services.